| time (UTC) | temp C | wind direction | speed KPH | gust KPH | rain 1hr cm | rain 24hr cm | rain mn cm | humidity % | barometer mb |
| 20260510095522 | 16 | 45 | 0.0 | 0.0 | 0.00 | 0.00 | 0.00 | 30 | 1017.6 |
| 20260510094521 | 16 | 67 | 0.0 | 0.0 | 0.00 | 0.00 | 0.00 | 31 | 1017.4 |
| 20260510093520 | 16 | 360 | 0.0 | 0.0 | 0.00 | 0.00 | 0.00 | 32 | 1017.2 |
| 20260510092521 | 17 | 360 | 0.0 | 0.0 | 0.00 | 0.00 | 0.00 | 28 | 1017.1 |
| 20260510091523 | 17 | 67 | 3.2 | 4.8 | 0.00 | 0.00 | 0.00 | 26 | 1017.0 |
| 20260510091439 | 17 | 47 | 3.2 | 4.8 | 0.00 | 0.00 | 0.00 | 27 | 1017.0 |
| 20260510090522 | 17 | 45 | 0.0 | 0.0 | 0.00 | 0.00 | 0.00 | 27 | 1016.9 |
| 20260510084522 | 18 | 67 | 0.0 | 3.2 | 0.00 | 0.00 | 0.00 | 26 | 1016.8 |
| 20260510083522 | 18 | 67 | 0.0 | 1.6 | 0.00 | 0.00 | 0.00 | 27 | 1016.8 |
| 20260510081522 | 18 | 292 | 0.0 | 0.0 | 0.00 | 0.00 | 0.00 | 28 | 1016.7 |
| 20260510075539 | 19 | 292 | 0.0 | 0.0 | 0.00 | 0.00 | 0.00 | 26 | 1016.7 |
| 20260510074522 | 19 | 45 | 0.0 | 3.2 | 0.00 | 0.00 | 0.00 | 25 | 1016.6 |
| 20260510073521 | 20 | 337 | 0.0 | 1.6 | 0.00 | 0.00 | 0.00 | 24 | 1016.5 |
| 20260510072538 | 21 | 22 | 0.0 | 0.0 | 0.00 | 0.00 | 0.00 | 21 | 1016.3 |
| 20260510071622 | 21 | 112 | 0.0 | 0.0 | 0.00 | 0.00 | 0.00 | 21 | 1016.3 |
| 20260510070622 | 21 | 337 | 0.0 | 0.0 | 0.00 | 0.00 | 0.00 | 22 | 1016.3 |
| 20260510064737 | 21 | 337 | 0.0 | 0.0 | 0.00 | 0.00 | 0.00 | 26 | 1016.0 |
| 20260510063721 | 21 | 337 | 0.0 | 1.6 | 0.00 | 0.00 | 0.00 | 22 | 1015.8 |
| 20260510062736 | 20 | 360 | 4.8 | 6.4 | 0.00 | 0.00 | 0.00 | 27 | 1015.7 |
| 20260510061820 | 21 | 337 | 0.0 | 1.6 | 0.00 | 0.00 | 0.00 | 25 | 1015.6 |
| 20260510060820 | 21 | 360 | 0.0 | 0.0 | 0.00 | 0.00 | 0.00 | 25 | 1015.3 |
| 20260510055830 | 22 | 90 | 0.0 | 0.0 | 0.00 | 0.00 | 0.00 | 21 | 1015.3 |
| 20260510054848 | 23 | 90 | 0.0 | 0.0 | 0.00 | 0.00 | 0.00 | 21 | 1015.1 |
| 20260510053946 | 23 | 180 | 0.0 | 0.0 | 0.00 | 0.00 | 0.00 | 19 | 1015.1 |
| 20260510053033 | 24 | 93 | 0.0 | 0.0 | 0.00 | 0.00 | 0.00 | 19 | 1014.9 |
| 20260510051130 | 24 | 90 | 3.2 | 4.8 | 0.00 | 0.00 | 0.00 | 19 | 1014.8 |
| 20260510050133 | 24 | 202 | 0.0 | 1.6 | 0.00 | 0.00 | 0.00 | 19 | 1014.5 |
| 20260510044131 | 25 | 202 | 0.0 | 0.0 | 0.00 | 0.00 | 0.00 | 18 | 1014.4 |
| 20260510044031 | 25 | 202 | 0.0 | 1.6 | 0.00 | 0.00 | 0.00 | 19 | 1014.5 |
| 20260510043130 | 26 | 337 | 1.6 | 1.6 | 0.00 | 0.00 | 0.00 | 18 | 1014.3 |
| 20260510042148 | 26 | 225 | 0.0 | 3.2 | 0.00 | 0.00 | 0.00 | 18 | 1014.3 |
| 20260510041230 | 26 | 112 | 0.0 | 1.6 | 0.00 | 0.00 | 0.00 | 17 | 1014.1 |
| 20260510040230 | 26 | 292 | 0.0 | 1.6 | 0.00 | 0.00 | 0.00 | 16 | 1013.7 |
| 20260510035232 | 26 | 292 | 3.2 | 4.8 | 0.00 | 0.00 | 0.00 | 18 | 1013.7 |
| 20260510034331 | 27 | 247 | 0.0 | 0.0 | 0.00 | 0.00 | 0.00 | 15 | 1013.5 |
| 20260510033345 | 27 | 247 | 0.0 | 3.2 | 0.00 | 0.00 | 0.00 | 17 | 1013.3 |
| 20260510032431 | 28 | 180 | 3.2 | 4.8 | 0.00 | 0.00 | 0.00 | 16 | 1013.1 |
| 20260510031530 | 28 | 157 | 1.6 | 3.2 | 0.00 | 0.00 | 0.00 | 15 | 1012.9 |
| 20260510025530 | 29 | 315 | 4.8 | 6.4 | 0.00 | 0.00 | 0.00 | 14 | 1012.4 |
| 20260510024532 | 30 | 315 | 0.0 | 0.0 | 0.00 | 0.00 | 0.00 | 14 | 1012.4 |
| 20260510023629 | 30 | 337 | 1.6 | 3.2 | 0.00 | 0.00 | 0.00 | 13 | 1012.2 |
| 20260510022633 | 31 | 344 | 4.8 | 6.4 | 0.00 | 0.00 | 0.00 | 12 | 1012.0 |
| 20260510020630 | 32 | 336 | 4.8 | 9.7 | 0.00 | 0.00 | 0.00 | 12 | 1012.0 |
| 20260510020530 | 32 | 334 | 4.8 | 8.0 | 0.00 | 0.00 | 0.00 | 12 | 1012.0 |
| 20260510015532 | 32 | 347 | 4.8 | 9.7 | 0.00 | 0.00 | 0.00 | 11 | 1011.9 |
| 20260510014547 | 32 | 347 | 8.0 | 12.9 | 0.00 | 0.00 | 0.00 | 11 | 1011.8 |
| 20260510013531 | 32 | 319 | 4.8 | 11.3 | 0.00 | 0.00 | 0.00 | 12 | 1011.7 |
| 20260510012548 | 32 | 17 | 3.2 | 6.4 | 0.00 | 0.00 | 0.00 | 12 | 1011.7 |
| 20260510012429 | 32 | 360 | 3.2 | 6.4 | 0.00 | 0.00 | 0.00 | 11 | 1011.8 |
| 20260510010446 | 33 | 356 | 6.4 | 14.5 | 0.00 | 0.00 | 0.00 | 11 | 1011.7 |
| 20260510004546 | 33 | 359 | 9.7 | 14.5 | 0.00 | 0.00 | 0.00 | 10 | 1011.4 |
| 20260510003530 | 35 | 349 | 6.4 | 11.3 | 0.00 | 0.00 | 0.00 | 10 | 1011.6 |
| 20260510002531 | 34 | 353 | 1.6 | 4.8 | 0.00 | 0.00 | 0.00 | 10 | 1011.6 |
| 20260510001630 | 33 | 22 | 8.0 | 14.5 | 0.00 | 0.00 | 0.00 | 11 | 1011.7 |
| 20260510000649 | 33 | 26 | 6.4 | 11.3 | 0.00 | 0.00 | 0.00 | 11 | 1011.6 |
| 20260509231930 | 35 | 4 | 4.8 | 11.3 | 0.00 | 0.00 | 0.00 | 10 | 1011.7 |
| 20260509231847 | 35 | 11 | 11.3 | 19.3 | 0.00 | 0.00 | 0.00 | 9 | 1011.7 |
| 20260509230846 | 34 | 359 | 9.7 | 17.7 | 0.00 | 0.00 | 0.00 | 9 | 1011.7 |
| 20260509225830 | 34 | 284 | 6.4 | 9.7 | 0.00 | 0.00 | 0.00 | 10 | 1011.9 |
| 20260509224831 | 34 | 207 | 6.4 | 11.3 | 0.00 | 0.00 | 0.00 | 9 | 1012.1 |
| 20260509223846 | 35 | 315 | 8.0 | 11.3 | 0.00 | 0.00 | 0.00 | 10 | 1012.0 |
| 20260509222931 | 35 | 354 | 8.0 | 17.7 | 0.00 | 0.00 | 0.00 | 9 | 1012.2 |
| 20260509220948 | 34 | 337 | 3.2 | 8.0 | 0.00 | 0.00 | 0.00 | 10 | 1012.5 |
| 20260509220032 | 33 | 346 | 9.7 | 14.5 | 0.00 | 0.00 | 0.00 | 10 | 1012.8 |
| 20260509214047 | 33 | 288 | 9.7 | 12.9 | 0.00 | 0.00 | 0.00 | 11 | 1013.0 |
| 20260509213131 | 33 | 332 | 12.9 | 20.9 | 0.00 | 0.00 | 0.00 | 11 | 1013.3 |
| 20260509212129 | 33 | 314 | 11.3 | 17.7 | 0.00 | 0.00 | 0.00 | 11 | 1013.3 |
| 20260509211131 | 33 | 301 | 9.7 | 16.1 | 0.00 | 0.00 | 0.00 | 11 | 1013.3 |
| 20260509210146 | 33 | 265 | 12.9 | 22.5 | 0.00 | 0.00 | 0.00 | 11 | 1013.6 |
| 20260509205229 | 33 | 299 | 14.5 | 20.9 | 0.00 | 0.00 | 0.00 | 11 | 1013.7 |
| 20260509203247 | 33 | 303 | 4.8 | 9.7 | 0.00 | 0.00 | 0.00 | 11 | 1013.8 |
| 20260509202230 | 33 | 293 | 17.7 | 29.0 | 0.00 | 0.00 | 0.00 | 11 | 1013.8 |
| 20260509195348 | 34 | 291 | 14.5 | 20.9 | 0.00 | 0.00 | 0.00 | 11 | 1014.3 |
| 20260509195246 | 34 | 291 | 6.4 | 16.1 | 0.00 | 0.00 | 0.00 | 11 | 1014.2 |
| 20260509194329 | 34 | 157 | 0.0 | 3.2 | 0.00 | 0.00 | 0.00 | 11 | 1014.3 |
| 20260509193329 | 34 | 209 | 6.4 | 9.7 | 0.00 | 0.00 | 0.00 | 12 | 1014.5 |
| 20260509192329 | 33 | 270 | 0.0 | 1.6 | 0.00 | 0.00 | 0.00 | 12 | 1014.7 |
| 20260509190246 | 33 | 192 | 0.0 | 9.7 | 0.00 | 0.00 | 0.00 | 12 | 1015.0 |
| 20260509185329 | 32 | 172 | 4.8 | 8.0 | 0.00 | 0.00 | 0.00 | 12 | 1015.1 |
| 20260509184346 | 32 | 252 | 4.8 | 6.4 | 0.00 | 0.00 | 0.00 | 12 | 1015.3 |
| 20260509183346 | 32 | 180 | 1.6 | 4.8 | 0.00 | 0.00 | 0.00 | 11 | 1015.5 |
| 20260509182330 | 31 | 202 | 4.8 | 9.7 | 0.00 | 0.00 | 0.00 | 13 | 1015.6 |
| 20260509181331 | 31 | 156 | 3.2 | 6.4 | 0.00 | 0.00 | 0.00 | 13 | 1015.7 |
| 20260509180346 | 31 | 116 | 4.8 | 8.0 | 0.00 | 0.00 | 0.00 | 13 | 1015.7 |
| 20260509174329 | 30 | 162 | 3.2 | 6.4 | 0.00 | 0.00 | 0.00 | 14 | 1016.3 |
| 20260509172347 | 29 | 156 | 4.8 | 9.7 | 0.00 | 0.00 | 0.00 | 14 | 1016.2 |
| 20260509172229 | 29 | 191 | 6.4 | 9.7 | 0.00 | 0.00 | 0.00 | 14 | 1016.2 |
| 20260509171247 | 29 | 136 | 4.8 | 8.0 | 0.00 | 0.00 | 0.00 | 15 | 1016.3 |
| 20260509170346 | 28 | 189 | 6.4 | 9.7 | 0.00 | 0.00 | 0.00 | 15 | 1016.2 |
| 20260509165348 | 28 | 116 | 4.8 | 8.0 | 0.00 | 0.00 | 0.00 | 16 | 1016.4 |
| 20260509164330 | 27 | 179 | 0.0 | 4.8 | 0.00 | 0.00 | 0.00 | 15 | 1016.3 |
| 20260509163330 | 28 | 122 | 6.4 | 11.3 | 0.00 | 0.00 | 0.00 | 15 | 1016.3 |
| 20260509162329 | 27 | 157 | 0.0 | 1.6 | 0.00 | 0.00 | 0.00 | 14 | 1016.5 |
| 20260509161345 | 27 | 135 | 0.0 | 1.6 | 0.00 | 0.00 | 0.00 | 16 | 1016.4 |
| 20260509160329 | 27 | 202 | 0.0 | 1.6 | 0.00 | 0.00 | 0.00 | 15 | 1016.4 |
| 20260509155331 | 26 | 180 | 1.6 | 3.2 | 0.00 | 0.00 | 0.00 | 16 | 1016.5 |
| 20260509154345 | 25 | 71 | 0.0 | 3.2 | 0.00 | 0.00 | 0.00 | 16 | 1016.5 |
| 20260509153346 | 25 | 157 | 0.0 | 0.0 | 0.00 | 0.00 | 0.00 | 18 | 1016.6 |
| 20260509152329 | 25 | 180 | 1.6 | 4.8 | 0.00 | 0.00 | 0.00 | 19 | 1016.6 |
| 20260509151347 | 25 | 292 | 0.0 | 0.0 | 0.00 | 0.00 | 0.00 | 19 | 1016.5 |
| 20260509150329 | 24 | 292 | 0.0 | 0.0 | 0.00 | 0.00 | 0.00 | 20 | 1016.6 |
| 20260509145346 | 22 | 292 | 0.0 | 0.0 | 0.00 | 0.00 | 0.00 | 21 | 1016.6 |
| 20260509142347 | 20 | 202 | 1.6 | 4.8 | 0.00 | 0.00 | 0.00 | 26 | 1016.5 |
| 20260509140446 | 17 | 202 | 0.0 | 0.0 | 0.00 | 0.00 | 0.00 | 31 | 1016.5 |
| 20260509135530 | 17 | 202 | 1.6 | 3.2 | 0.00 | 0.00 | 0.00 | 34 | 1016.4 |
| 20260509134628 | 16 | 337 | 1.6 | 1.6 | 0.00 | 0.00 | 0.00 | 33 | 1016.3 |
| 20260509133728 | 16 | 157 | 0.0 | 0.0 | 0.00 | 0.00 | 0.00 | 33 | 1016.2 |
| 20260509132746 | 15 | 157 | 0.0 | 0.0 | 0.00 | 0.00 | 0.00 | 34 | 1016.0 |
| 20260509131745 | 15 | 135 | 0.0 | 0.0 | 0.00 | 0.00 | 0.00 | 34 | 1016.1 |
| 20260509125828 | 13 | 22 | 3.2 | 4.8 | 0.00 | 0.00 | 0.00 | 33 | 1015.7 |
| 20260509124828 | 14 | 337 | 0.0 | 0.0 | 0.00 | 0.00 | 0.00 | 34 | 1015.6 |
| 20260509123844 | 14 | 337 | 0.0 | 0.0 | 0.00 | 0.00 | 0.00 | 31 | 1015.6 |
| 20260509122927 | 13 | 337 | 0.0 | 0.0 | 0.00 | 0.00 | 0.00 | 35 | 1015.4 |
| 20260509121944 | 13 | 337 | 0.0 | 0.0 | 0.00 | 0.00 | 0.00 | 35 | 1015.3 |
| 20260509121030 | 14 | 337 | 0.0 | 0.0 | 0.00 | 0.00 | 0.00 | 32 | 1015.1 |
| 20260509120029 | 14 | 337 | 0.0 | 0.0 | 0.00 | 0.00 | 0.00 | 33 | 1015.0 |
| 20260509115029 | 14 | 337 | 0.0 | 0.0 | 0.00 | 0.00 | 0.00 | 31 | 1014.9 |
| 20260509114047 | 16 | 45 | 0.0 | 0.0 | 0.00 | 0.00 | 0.00 | 27 | 1014.7 |
| 20260509113130 | 16 | 67 | 3.2 | 4.8 | 0.00 | 0.00 | 0.00 | 26 | 1014.7 |
| 20260509112145 | 15 | 202 | 0.0 | 0.0 | 0.00 | 0.00 | 0.00 | 28 | 1014.7 |
| 20260509111128 | 16 | 315 | 0.0 | 0.0 | 0.00 | 0.00 | 0.00 | 28 | 1014.6 |
| 20260509110129 | 16 | 315 | 0.0 | 0.0 | 0.00 | 0.00 | 0.00 | 27 | 1014.5 |
| 20260509105228 | 16 | 337 | 1.6 | 3.2 | 0.00 | 0.00 | 0.00 | 27 | 1014.3 |
| 20260509104229 | 17 | 360 | 0.0 | 0.0 | 0.00 | 0.00 | 0.00 | 25 | 1014.4 |
| 20260509103246 | 17 | 360 | 0.0 | 0.0 | 0.00 | 0.00 | 0.00 | 23 | 1014.2 |
| 20260509102228 | 18 | 360 | 0.0 | 1.6 | 0.00 | 0.00 | 0.00 | 22 | 1014.2 |
| 20260509101229 | 18 | 320 | 3.2 | 6.4 | 0.00 | 0.00 | 0.00 | 22 | 1014.0 |